GW3840 Weather Reports


Display with metric or nautical units.
time (UTC)temp
F
wind
direction
speed
MPH
gust
MPH
rain 1hr
in
rain 24hr
in
rain mn
in
humidity
%
barometer
mb
20260510180218 53 327 5.0 10.0 0.00 0.00 0.00 46 1022.9
20260510175714 52 339 4.0 8.0 0.00 0.00 0.00 49 1022.9
20260510175210 52 15 8.0 13.0 0.00 0.00 0.00 46 1022.9
20260510174707 51 336 4.0 14.0 0.00 0.00 0.00 50 1023.1
20260510174204 52 289 9.0 10.0 0.00 0.00 0.00 47 1023.1
20260510173700 51 275 6.0 13.0 0.00 0.00 0.00 48 1022.9
20260510173156 52 325 5.0 15.0 0.00 0.00 0.00 47 1022.9
20260510172652 51 49 6.0 15.0 0.00 0.00 0.00 47 1023.0
20260510172148 51 357 11.0 15.0 0.00 0.00 0.00 45 1022.8
20260510171645 51 345 7.0 13.0 0.00 0.00 0.00 47 1022.9
20260510171143 52 350 8.0 13.0 0.00 0.00 0.00 46 1023.0
20260510170639 52 334 4.0 11.0 0.00 0.00 0.00 49 1023.0
20260510170136 51 34 6.0 13.0 0.00 0.00 0.00 46 1022.9
20260510165631 51 337 6.0 9.0 0.00 0.00 0.00 48 1022.9
20260510165127 51 337 6.0 13.0 0.00 0.00 0.00 49 1023.2
20260510164625 51 346 8.0 9.0 0.00 0.00 0.00 47 1022.8
20260510164121 51 307 7.0 11.0 0.00 0.00 0.00 48 1022.9
20260510163616 50 333 7.0 13.0 0.00 0.00 0.00 46 1023.0
20260510163113 51 12 6.0 11.0 0.00 0.00 0.00 47 1022.8
20260510162608 50 44 7.0 11.0 0.00 0.00 0.00 47 1022.9
20260510162104 51 17 6.0 15.0 0.00 0.00 0.00 46 1022.7
20260510161600 51 319 3.0 8.0 0.00 0.00 0.00 51 1022.8
20260510161058 51 329 6.0 10.0 0.00 0.00 0.00 49 1022.9
20260510160554 51 64 2.0 8.0 0.00 0.00 0.00 50 1022.7
20260510160054 50 317 4.0 11.0 0.00 0.00 0.00 50 1022.8
20260510155550 50 38 4.0 9.0 0.00 0.00 0.00 49 1022.7
20260510155047 50 19 7.0 9.0 0.00 0.00 0.00 48 1022.7
20260510154542 50 35 8.0 14.0 0.00 0.00 0.00 48 1022.8
20260510154038 50 13 8.0 10.0 0.00 0.00 0.00 48 1022.8
20260510153533 50 25 6.0 9.0 0.00 0.00 0.00 48 1022.4
20260510153031 50 37 3.0 14.0 0.00 0.00 0.00 51 1022.4
20260510152528 50 24 3.0 10.0 0.00 0.00 0.00 48 1022.6
20260510152024 50 40 4.0 9.0 0.00 0.00 0.00 47 1022.5
20260510151520 49 88 6.0 10.0 0.00 0.00 0.00 49 1022.6
20260510151018 48 133 4.0 7.0 0.00 0.00 0.00 49 1022.6
20260510150513 48 29 6.0 10.0 0.00 0.00 0.00 49 1022.5
20260510150009 49 42 4.0 11.0 0.00 0.00 0.00 47 1022.5
20260510145506 48 4 6.0 14.0 0.00 0.00 0.00 48 1022.5
20260510144956 49 44 4.0 9.0 0.00 0.00 0.00 48 1022.4
20260510144453 47 52 4.0 7.0 0.00 0.00 0.00 50 1022.4
20260510143949 47 2 6.0 9.0 0.00 0.00 0.00 50 1022.5
20260510143444 48 15 9.0 11.0 0.00 0.00 0.00 49 1022.4
20260510142942 47 58 7.0 10.0 0.00 0.00 0.00 50 1022.4
20260510142438 46 333 3.0 7.0 0.00 0.00 0.00 53 1022.5
20260510141935 47 16 5.0 10.0 0.00 0.00 0.00 53 1022.5
20260510141432 47 70 3.0 8.0 0.00 0.00 0.00 54 1022.2
20260510140929 47 59 1.0 8.0 0.00 0.00 0.00 59 1022.0
20260510140425 47 36 2.0 6.0 0.00 0.00 0.00 58 1022.2
20260510135924 45 14 5.0 10.0 0.00 0.00 0.00 57 1022.4
20260510135415 46 45 5.0 8.0 0.00 0.00 0.00 60 1022.0
20260510134912 45 40 6.0 14.0 0.00 0.00 0.00 59 1022.0
20260510134409 46 63 3.0 9.0 0.00 0.00 0.00 60 1022.0
20260510133900 44 60 3.0 7.0 0.00 0.00 0.00 60 1022.1
20260510133356 45 30 5.0 8.0 0.00 0.00 0.00 59 1022.2
20260510132851 45 117 4.0 8.0 0.00 0.00 0.00 59 1022.1
20260510132350 44 95 6.0 8.0 0.00 0.00 0.00 60 1022.0
20260510131846 44 52 4.0 7.0 0.00 0.00 0.00 60 1021.9
20260510131344 44 31 5.0 10.0 0.00 0.00 0.00 62 1022.0
20260510130840 44 6 6.0 8.0 0.00 0.00 0.00 64 1022.0
20260510130337 44 49 2.0 6.0 0.00 0.00 0.00 66 1022.0
20260510125834 44 139 3.0 8.0 0.00 0.00 0.00 66 1021.8
20260510125330 44 345 4.0 8.0 0.00 0.00 0.00 66 1021.6
20260510124827 44 113 3.0 7.0 0.00 0.00 0.00 67 1022.0
20260510124324 44 48 4.0 7.0 0.00 0.00 0.00 66 1021.9
20260510123820 44 13 6.0 10.0 0.00 0.00 0.00 68 1021.6
20260510123315 44 117 5.0 10.0 0.00 0.00 0.00 67 1021.5
20260510122812 44 19 4.0 9.0 0.00 0.00 0.00 67 1021.3
20260510122308 44 54 2.0 10.0 0.00 0.00 0.00 67 1021.3
20260510121804 44 59 1.0 6.0 0.00 0.00 0.00 66 1021.2
20260510121302 44 31 5.0 10.0 0.00 0.00 0.00 65 1021.2
20260510120759 44 4 4.0 4.0 0.00 0.00 0.00 65 1021.1
20260510120255 44 53 3.0 8.0 0.00 0.00 0.00 65 1021.1
20260510115751 44 58 2.0 6.0 0.00 0.00 0.00 64 1021.0
20260510115249 44 66 2.0 7.0 0.00 0.00 0.00 64 1021.0
20260510114744 44 9 6.0 8.0 0.00 0.00 0.00 62 1020.6
20260510114242 44 343 4.0 9.0 0.00 0.00 0.00 63 1020.8
20260510113737 45 15 1.0 9.0 0.00 0.00 0.00 63 1020.7
20260510113234 45 67 4.0 7.0 0.00 0.00 0.00 62 1020.6
20260510112725 45 39 4.0 8.0 0.00 0.00 0.00 64 1020.5
20260510112222 45 10 4.0 8.0 0.00 0.00 0.00 62 1020.5
20260510111717 44 42 0.0 1.0 0.00 0.00 0.00 66 1020.4
20260510111215 44 107 0.0 3.0 0.00 0.00 0.00 65 1020.6
20260510110714 44 24 0.0 2.0 0.00 0.00 0.00 66 1020.3
20260510110213 44 32 2.0 3.0 0.00 0.00 0.00 65 1020.2
20260510105712 44 23 3.0 4.0 0.00 0.00 0.00 66 1020.0
20260510105207 44 95 1.0 6.0 0.00 0.00 0.00 66 1020.1
20260510104704 44 97 0.0 2.0 0.00 0.00 0.00 67 1019.9
20260510104201 44 66 0.0 1.0 0.00 0.00 0.00 67 1019.9
20260510103657 44 79 1.0 2.0 0.00 0.00 0.00 67 1019.6
20260510103154 44 86 1.0 1.0 0.00 0.00 0.00 66 1019.9
20260510102654 44 17 2.0 2.0 0.00 0.00 0.00 66 1019.5
20260510102151 44 140 0.0 2.0 0.00 0.00 0.00 66 1019.9
20260510101648 44 40 0.0 2.0 0.00 0.00 0.00 68 1019.5
20260510101146 44 148 0.0 0.0 0.00 0.00 0.00 67 1019.6
20260510100642 44 125 0.0 1.0 0.00 0.00 0.00 66 1019.6
20260510100140 44 28 1.0 2.0 0.00 0.00 0.00 67 1019.5
20260510095635 44 36 1.0 2.0 0.00 0.00 0.00 67 1019.6
20260510095130 44 45 1.0 2.0 0.00 0.00 0.00 65 1019.4
20260510094623 44 96 1.0 3.0 0.00 0.00 0.00 67 1019.4
20260510094119 44 89 2.0 4.0 0.00 0.00 0.00 67 1019.4
20260510093616 44 33 3.0 4.0 0.00 0.00 0.00 67 1019.3
20260510093113 44 116 0.0 3.0 0.00 0.00 0.00 69 1019.1
20260510092610 44 105 1.0 3.0 0.00 0.00 0.00 70 1019.1
20260510092109 45 52 0.0 2.0 0.00 0.00 0.00 70 1019.0
20260510091606 45 5 1.0 3.0 0.00 0.00 0.00 69 1019.0
20260510091102 45 41 3.0 4.0 0.00 0.00 0.00 67 1019.0
20260510090600 46 20 2.0 7.0 0.00 0.00 0.00 64 1019.0
20260510090055 46 42 4.0 7.0 0.00 0.00 0.00 66 1018.8
20260510085550 45 5 3.0 4.0 0.00 0.00 0.00 66 1018.7
20260510085046 46 34 4.0 6.0 0.00 0.00 0.00 65 1018.6
20260510084543 46 75 0.0 2.0 0.00 0.00 0.00 65 1018.6
20260510084040 45 10 4.0 4.0 0.00 0.00 0.00 64 1018.5
20260510083536 45 31 2.0 2.0 0.00 0.00 0.00 64 1018.5
20260510083032 45 335 1.0 3.0 0.00 0.00 0.00 66 1018.3
20260510082530 45 56 0.0 3.0 0.00 0.00 0.00 66 1018.2
20260510082025 45 16 1.0 2.0 0.00 0.00 0.00 67 1018.0
20260510081520 45 100 0.0 1.0 0.00 0.00 0.00 73 1017.8
20260510081016 44 252 0.0 1.0 0.00 0.00 0.00 73 1018.0
20260510080515 43 271 1.0 2.0 0.00 0.00 0.00 74 1017.6
20260510080012 44 206 0.0 0.0 0.00 0.00 0.00 78 1017.6
20260510075510 44 205 0.0 0.0 0.00 0.00 0.00 77 1017.6
20260510075006 44 210 1.0 1.0 0.00 0.00 0.00 76 1017.6
20260510074504 43 217 0.0 0.0 0.00 0.00 0.00 77 1017.8
20260510073959 43 187 0.0 0.0 0.00 0.00 0.00 77 1017.6
20260510073455 43 186 0.0 0.0 0.00 0.00 0.00 75 1017.6
20260510072952 43 178 0.0 0.0 0.00 0.00 0.00 75 1017.8
20260510072449 42 194 0.0 0.0 0.00 0.00 0.00 75 1017.8
20260510071944 42 187 0.0 0.0 0.00 0.00 0.00 75 1017.5
20260510071441 42 199 0.0 0.0 0.00 0.00 0.00 73 1017.6
20260510070939 42 190 0.0 0.0 0.00 0.00 0.00 73 1017.6
20260510070436 41 190 0.0 1.0 0.00 0.00 0.00 73 1017.6
20260510065932 41 156 0.0 0.0 0.00 0.00 0.00 74 1017.8
20260510065429 41 201 0.0 1.0 0.00 0.00 0.00 74 1017.7
20260510064924 41 189 0.0 1.0 0.00 0.00 0.00 77 1017.8
20260510064423 42 165 0.0 0.0 0.00 0.00 0.00 77 1017.7
20260510063919 42 247 0.0 1.0 0.00 0.00 0.00 76 1017.7
20260510063415 43 200 0.0 0.0 0.00 0.00 0.00 79 1017.7
20260510062913 43 205 0.0 0.0 0.00 0.00 0.00 80 1017.5
20260510062408 43 207 0.0 0.0 0.00 0.00 0.00 81 1017.7
20260510061904 44 213 0.0 0.0 0.00 0.00 0.00 81 1017.5
20260510061401 44 221 1.0 1.0 0.00 0.00 0.00 81 1017.6
20260510060856 44 214 1.0 2.0 0.00 0.00 0.00 80 1017.4
20260510060354 42 232 1.0 1.0 0.00 0.00 0.00 79 1017.6
20260510055849 41 226 1.0 1.0 0.00 0.00 0.00 78 1017.6
20260510055349 40 183 0.0 0.0 0.00 0.00 0.00 78 1017.6
20260510054843 40 165 0.0 0.0 0.00 0.00 0.00 77 1017.8
20260510054338 40 165 0.0 0.0 0.00 0.00 0.00 76 1017.6
20260510053833 39 165 0.0 0.0 0.00 0.00 0.00 74 1017.6
20260510053329 40 165 0.0 0.0 0.00 0.00 0.00 73 1017.4
20260510052826 39 165 0.0 0.0 0.00 0.00 0.00 73 1017.5
20260510052321 39 165 0.0 0.0 0.00 0.00 0.00 74 1017.4
20260510051818 40 164 0.0 0.0 0.00 0.00 0.00 73 1017.4
20260510051315 40 164 0.0 0.0 0.00 0.00 0.00 73 1017.1
20260510050812 40 168 0.0 0.0 0.00 0.00 0.00 72 1017.4
20260510050308 40 167 0.0 0.0 0.00 0.00 0.00 71 1017.4
20260510045806 41 167 0.0 0.0 0.00 0.09 0.09 71 1017.1
20260510045305 41 161 0.0 0.0 0.00 0.09 0.09 70 1017.4
20260510044759 41 161 0.0 0.0 0.00 0.09 0.09 71 1016.9
20260510044256 42 165 0.0 0.0 0.00 0.09 0.09 69 1017.1
20260510043752 42 165 0.0 0.0 0.00 0.09 0.09 69 1017.1
20260510043243 43 184 0.0 0.0 0.00 0.09 0.09 67 1017.2
20260510042740 43 184 0.0 0.0 0.00 0.09 0.09 66 1017.2
20260510042236 44 184 0.0 0.0 0.00 0.09 0.09 63 1017.1
20260510041733 44 180 0.0 0.0 0.00 0.09 0.09 63 1017.0
20260510041230 44 195 0.0 0.0 0.00 0.09 0.09 62 1016.9
20260510040727 45 195 0.0 0.0 0.00 0.09 0.09 61 1017.1
20260510040224 45 195 0.0 0.0 0.00 0.09 0.09 65 1017.0
20260510035719 46 195 0.0 0.0 0.00 0.09 0.09 64 1017.1
20260510035216 45 222 0.0 0.0 0.00 0.09 0.09 63 1017.1
20260510034711 45 224 0.0 0.0 0.00 0.09 0.09 64 1016.9
20260510034209 45 224 0.0 0.0 0.00 0.09 0.09 61 1017.0
20260510033704 45 224 0.0 0.0 0.00 0.09 0.09 61 1017.0
20260510033203 45 224 0.0 0.0 0.00 0.09 0.09 59 1016.8
20260510032658 45 224 0.0 0.0 0.00 0.09 0.09 59 1016.8
20260510032154 46 224 0.0 0.0 0.00 0.09 0.09 57 1016.8
20260510031649 46 225 0.0 0.0 0.00 0.09 0.09 56 1017.0
20260510031146 46 225 0.0 0.0 0.00 0.09 0.09 56 1016.8
20260510030640 46 224 0.0 0.0 0.00 0.09 0.09 56 1016.7
20260510030138 46 225 0.0 0.0 0.00 0.09 0.09 55 1016.8
20260510025635 47 224 0.0 0.0 0.00 0.09 0.09 53 1016.6
20260510025132 48 224 0.0 0.0 0.00 0.09 0.09 53 1016.6
20260510024629 48 342 0.0 0.0 0.00 0.09 0.09 50 1016.5
20260510024126 49 234 0.0 1.0 0.00 0.09 0.09 49 1016.5
20260510023621 49 268 1.0 1.0 0.00 0.09 0.09 47 1016.5
20260510023119 49 247 0.0 1.0 0.00 0.09 0.09 48 1016.4
20260510022613 49 299 1.0 1.0 0.00 0.09 0.09 48 1016.4
20260510022108 49 273 0.0 1.0 0.00 0.09 0.09 47 1016.4
20260510021604 50 299 0.0 1.0 0.00 0.09 0.09 47 1016.2
20260510021102 50 22 0.0 1.0 0.00 0.09 0.09 47 1016.2
20260510020556 50 340 1.0 3.0 0.00 0.09 0.09 46 1016.1
20260510020052 50 337 0.0 3.0 0.00 0.09 0.09 45 1016.1
20260510015548 50 309 3.0 4.0 0.00 0.09 0.09 44 1016.1
20260510015044 50 299 1.0 3.0 0.00 0.09 0.09 44 1015.7
20260510014540 50 308 3.0 6.0 0.00 0.09 0.09 43 1015.8
20260510014037 51 317 2.0 4.0 0.00 0.09 0.09 43 1015.8
20260510013531 51 352 4.0 6.0 0.00 0.09 0.09 43 1015.7
20260510013028 51 344 2.0 8.0 0.00 0.09 0.09 42 1015.7
20260510012522 51 5 3.0 7.0 0.00 0.09 0.09 42 1015.4
20260510012019 51 358 4.0 8.0 0.00 0.09 0.09 42 1015.4
20260510011518 51 283 3.0 9.0 0.00 0.09 0.09 41 1015.4
20260510011013 52 291 4.0 8.0 0.00 0.09 0.09 41 1015.3
20260510010511 52 338 4.0 6.0 0.00 0.09 0.09 41 1015.3
20260510010008 52 357 4.0 9.0 0.00 0.09 0.09 40 1015.4
20260510005503 52 358 5.0 8.0 0.00 0.09 0.09 40 1015.2
20260510005001 52 302 4.0 10.0 0.00 0.09 0.09 40 1015.0
20260510004458 53 243 3.0 10.0 0.00 0.09 0.09 39 1015.2
20260510003957 53 338 6.0 10.0 0.00 0.09 0.09 39 1015.1
20260510003453 52 116 2.0 4.0 0.00 0.09 0.09 41 1014.9
20260510002948 53 359 5.0 7.0 0.00 0.09 0.09 39 1015.0
20260510002444 53 21 4.0 7.0 0.00 0.09 0.09 39 1014.9
20260510001942 54 9 4.0 11.0 0.00 0.09 0.09 38 1015.1
20260510001439 55 329 7.0 11.0 0.00 0.09 0.09 38 1015.0
20260510000937 54 19 8.0 11.0 0.00 0.09 0.09 37 1014.7
20260510000433 55 9 5.0 9.0 0.00 0.09 0.09 37 1014.7
20260509235929 55 332 4.0 8.0 0.00 0.09 0.09 40 1014.6
20260509235426 55 314 9.0 15.0 0.00 0.09 0.09 35 1014.7
20260509234921 55 314 9.0 15.0 0.00 0.09 0.09 35 1014.7
20260509234419 55 314 9.0 15.0 0.00 0.09 0.09 35 1014.6
20260509233917 55 349 5.0 7.0 0.00 0.09 0.09 38 1014.4
20260509233415 53 345 6.0 9.0 0.00 0.09 0.09 39 1014.2
20260509232911 54 340 2.0 4.0 0.00 0.09 0.09 39 1014.5
20260509232408 53 332 5.0 8.0 0.00 0.09 0.09 38 1014.5
20260509231904 54 27 5.0 7.0 0.00 0.09 0.09 38 1014.1
20260509231400 55 16 6.0 8.0 0.00 0.09 0.09 39 1014.0
20260509230858 55 16 6.0 8.0 0.00 0.09 0.09 39 1014.2
20260509230355 55 16 6.0 8.0 0.00 0.09 0.09 39 1014.3
20260509225851 55 16 6.0 8.0 0.00 0.09 0.09 39 1014.3
20260509225348 55 307 6.0 8.0 0.00 0.09 0.09 38 1014.1
20260509224843 55 307 6.0 8.0 0.00 0.09 0.09 38 1014.1
20260509224339 54 343 3.0 4.0 0.00 0.09 0.09 42 1014.0
20260509223836 54 343 3.0 4.0 0.00 0.09 0.09 42 1014.0
20260509223333 54 343 3.0 4.0 0.00 0.09 0.09 42 1014.0
20260509222830 54 323 6.0 10.0 0.00 0.09 0.09 40 1014.1
20260509222325 54 57 6.0 9.0 0.00 0.09 0.09 41 1013.9
20260509221821 55 2 5.0 8.0 0.00 0.09 0.09 40 1013.8
20260509221319 56 304 3.0 8.0 0.00 0.09 0.09 41 1013.7
20260509220814 56 258 3.0 13.0 0.00 0.09 0.09 41 1013.8
20260509220310 56 346 4.0 9.0 0.00 0.09 0.09 40 1013.7
20260509215806 56 31 4.0 10.0 0.00 0.09 0.09 40 1014.1
20260509215306 56 356 7.0 11.0 0.00 0.09 0.09 38 1013.8
20260509214800 55 301 11.0 15.0 0.00 0.09 0.09 39 1013.6
20260509214257 56 342 7.0 10.0 0.00 0.09 0.09 40 1013.8
20260509213754 56 268 5.0 10.0 0.00 0.09 0.09 42 1013.9
20260509213249 56 282 8.0 11.0 0.00 0.09 0.09 39 1013.7
20260509212747 55 311 8.0 11.0 0.00 0.09 0.09 39 1013.7
20260509212244 55 324 14.0 19.0 0.00 0.09 0.09 37 1013.7
20260509211745 55 351 5.0 15.0 0.00 0.09 0.09 40 1013.9
20260509211241 56 274 9.0 16.0 0.00 0.09 0.09 39 1013.6
20260509210738 55 269 6.0 11.0 0.00 0.09 0.09 40 1013.7
20260509210236 55 343 9.0 16.0 0.00 0.09 0.09 39 1013.8
20260509205735 55 289 5.0 13.0 0.00 0.09 0.09 41 1013.7
20260509205230 56 250 7.0 14.0 0.00 0.09 0.09 40 1013.8
20260509204726 56 262 8.0 13.0 0.00 0.09 0.09 39 1013.8
20260509204223 54 351 6.0 14.0 0.00 0.09 0.09 41 1013.7
20260509203719 56 279 9.0 17.0 0.00 0.09 0.09 39 1013.9
20260509203218 56 301 6.0 13.0 0.00 0.09 0.09 45 1013.6
20260509202713 55 57 4.0 9.0 0.00 0.09 0.09 42 1013.6
20260509202208 55 315 9.0 13.0 0.00 0.09 0.09 42 1013.6
20260509201703 54 318 7.0 15.0 0.00 0.09 0.09 42 1013.8
20260509201201 54 308 6.0 11.0 0.00 0.09 0.09 42 1013.7
20260509200657 54 315 8.0 16.0 0.00 0.09 0.09 41 1013.7
20260509200152 53 32 6.0 17.0 0.00 0.09 0.09 45 1013.8
20260509195647 53 346 7.0 14.0 0.00 0.09 0.09 44 1013.6
20260509195143 53 43 6.0 11.0 0.00 0.09 0.09 46 1013.6
20260509194637 53 14 5.0 13.0 0.00 0.09 0.09 43 1013.6
20260509194135 53 271 6.0 10.0 0.00 0.09 0.09 45 1013.5
20260509193630 54 322 6.0 10.0 0.00 0.09 0.09 45 1013.6
20260509193126 54 342 7.0 11.0 0.00 0.09 0.09 45 1013.5
20260509192623 53 23 5.0 16.0 0.00 0.09 0.09 51 1013.3
20260509192118 53 320 8.0 14.0 0.00 0.09 0.09 47 1013.3
20260509191612 53 339 6.0 14.0 0.00 0.09 0.09 46 1013.2
20260509191108 52 0 9.0 13.0 0.00 0.09 0.09 47 1013.4
20260509190605 53 3 4.0 15.0 0.00 0.09 0.09 46 1013.3
20260509185600 53 329 11.0 17.0 0.00 0.09 0.09 46 1013.3
20260509185056 53 303 4.0 11.0 0.00 0.09 0.09 47 1013.4
20260509184555 52 359 5.0 11.0 0.00 0.09 0.09 49 1013.2
20260509184051 52 283 6.0 9.0 0.00 0.09 0.09 49 1013.2
20260509183546 52 320 4.0 6.0 0.00 0.09 0.09 49 1013.4
20260509183042 51 320 5.0 8.0 0.00 0.09 0.09 50 1013.2
20260509182539 52 338 4.0 14.0 0.00 0.09 0.09 51 1013.3
20260509182036 51 320 7.0 10.0 0.00 0.09 0.09 49 1013.1
20260509181534 52 17 4.0 10.0 0.00 0.09 0.09 49 1013.2
20260509181031 52 22 6.0 10.0 0.00 0.09 0.09 50 1012.9
20260509180527 51 299 8.0 14.0 0.00 0.09 0.09 50 1013.1